FW2026 Weather Reports


Display with metric or nautical units.
time (UTC)temp
F
wind
direction
speed
MPH
gust
MPH
rain 1hr
in
rain 24hr
in
rain mn
in
humidity
%
barometer
mb
20210803215133 52 110 0.0 0.0 0.00 0.14 0.14 82 1013.0
20210803214632 52 110 0.0 1.0 0.00 0.14 0.14 81 1013.0
20210803214132 53 110 0.0 1.0 0.00 0.14 0.14 81 1012.9
20210803213631 53 110 0.0 0.0 0.00 0.14 0.14 81 1013.0
20210803213133 53 110 0.0 0.0 0.00 0.14 0.14 81 1013.0
20210803212632 53 110 0.0 0.0 0.00 0.14 0.14 80 1012.9
20210803212132 53 110 0.0 1.0 0.00 0.14 0.14 80 1012.9
20210803211634 53 110 0.0 1.0 0.00 0.14 0.14 79 1013.0
20210803211133 53 110 0.0 1.0 0.00 0.14 0.14 79 1013.0
20210803210632 53 110 0.0 0.0 0.00 0.14 0.14 79 1013.0
20210803210132 53 110 0.0 0.0 0.00 0.14 0.14 78 1013.0
20210803205633 54 110 0.0 0.0 0.00 0.14 0.14 79 1013.0
20210803205132 54 110 0.0 0.0 0.00 0.14 0.14 78 1012.9
20210803204633 54 110 0.0 0.0 0.00 0.14 0.14 79 1012.9
20210803204133 55 110 0.0 0.0 0.00 0.14 0.14 78 1012.8
20210803203632 55 110 0.0 0.0 0.00 0.14 0.14 78 1012.8
20210803203132 55 110 0.0 0.0 0.00 0.14 0.14 78 1012.8
20210803202632 55 110 0.0 1.0 0.00 0.14 0.14 78 1012.7
20210803202132 55 110 0.0 2.0 0.00 0.14 0.14 78 1012.6
20210803201632 56 110 1.0 2.0 0.00 0.14 0.14 77 1012.6
20210803201134 56 47 0.0 1.0 0.00 0.14 0.14 77 1012.5
20210803200632 56 47 0.0 1.0 0.00 0.14 0.14 77 1012.6
20210803200132 57 47 0.0 0.0 0.00 0.14 0.14 77 1012.6
20210803195633 57 47 0.0 0.0 0.00 0.14 0.14 76 1012.6
20210803195132 57 47 0.0 1.0 0.00 0.14 0.14 76 1012.6
20210803194632 58 47 0.0 2.0 0.00 0.14 0.14 76 1012.5
20210803194132 58 47 1.0 2.0 0.00 0.14 0.14 75 1012.5
20210803193632 58 39 0.0 2.0 0.00 0.14 0.14 75 1012.4
20210803193133 59 68 0.0 1.0 0.00 0.14 0.14 75 1012.3
20210803192635 60 68 0.0 1.0 0.00 0.14 0.14 74 1012.3
20210803192132 60 68 0.0 1.0 0.00 0.14 0.14 74 1012.4
20210803191632 60 68 0.0 0.0 0.00 0.14 0.14 73 1012.2
20210803191132 61 68 0.0 1.0 0.00 0.14 0.14 72 1012.2
20210803190631 61 68 0.0 1.0 0.00 0.14 0.14 71 1012.2
20210803190132 62 68 0.0 0.0 0.00 0.14 0.14 71 1012.2
20210803185632 62 68 0.0 0.0 0.00 0.14 0.14 71 1012.1
20210803185132 63 68 0.0 1.0 0.00 0.14 0.14 70 1012.1
20210803184632 63 68 0.0 1.0 0.00 0.14 0.14 68 1012.0
20210803184133 64 68 0.0 1.0 0.00 0.14 0.14 66 1012.1
20210803183632 64 68 0.0 2.0 0.00 0.14 0.14 66 1012.1
20210803183130 64 68 0.0 2.0 0.00 0.14 0.14 65 1012.1
20210803182630 64 68 1.0 2.0 0.00 0.14 0.14 64 1012.0
20210803182131 64 68 1.0 3.0 0.00 0.14 0.14 64 1011.9
20210803181632 64 68 1.0 3.0 0.00 0.14 0.14 63 1011.9
20210803181131 65 93 2.0 3.0 0.00 0.14 0.14 62 1011.9
20210803180632 65 75 2.0 4.0 0.00 0.14 0.14 63 1011.9
20210803180130 65 80 3.0 4.0 0.00 0.14 0.14 61 1011.8
20210803175631 65 58 2.0 4.0 0.00 0.14 0.14 61 1011.8
20210803175131 65 68 2.0 4.0 0.00 0.14 0.14 61 1011.8
20210803174632 65 82 3.0 4.0 0.00 0.14 0.14 61 1011.9
20210803174130 65 37 2.0 4.0 0.00 0.14 0.14 62 1011.7
20210803173631 65 73 2.0 5.0 0.00 0.14 0.14 61 1011.7
20210803173131 65 61 3.0 5.0 0.00 0.14 0.14 61 1011.7
20210803172632 65 80 2.0 3.0 0.00 0.14 0.14 62 1011.7
20210803172133 65 47 2.0 4.0 0.00 0.14 0.14 62 1011.7
20210803171630 65 68 3.0 4.0 0.00 0.14 0.14 60 1011.8
20210803171130 66 66 1.0 5.0 0.00 0.14 0.14 61 1011.6
20210803170632 66 73 2.0 7.0 0.00 0.14 0.14 59 1011.7
20210803170131 66 71 5.0 7.0 0.00 0.14 0.14 60 1011.7
20210803165631 66 63 3.0 5.0 0.00 0.14 0.14 60 1011.7
20210803165131 65 86 3.0 5.0 0.00 0.14 0.14 59 1011.6
20210803164632 66 62 2.0 5.0 0.00 0.14 0.14 60 1011.7
20210803164131 66 71 2.0 5.0 0.00 0.14 0.14 61 1011.7
20210803163633 66 55 2.0 6.0 0.00 0.14 0.14 59 1011.7
20210803163132 66 68 3.0 6.0 0.00 0.14 0.14 60 1011.8
20210803162631 66 357 0.0 5.0 0.00 0.14 0.14 61 1011.8
20210803162131 66 47 3.0 6.0 0.00 0.14 0.14 61 1011.8
20210803161632 65 0 4.0 6.0 0.00 0.14 0.14 62 1011.7
20210803161131 65 55 4.0 6.0 0.00 0.14 0.14 62 1011.8
20210803160630 65 35 2.0 9.0 0.00 0.14 0.14 62 1011.8
20210803160130 65 56 5.0 9.0 0.00 0.14 0.14 61 1011.8
20210803155632 65 63 3.0 9.0 0.00 0.14 0.14 63 1011.7
20210803155130 65 20 5.0 9.0 0.00 0.14 0.14 63 1011.8
20210803154632 65 66 5.0 9.0 0.00 0.14 0.14 64 1011.7
20210803154130 65 56 4.0 9.0 0.00 0.14 0.14 65 1011.7
20210803153630 65 333 5.0 7.0 0.00 0.14 0.14 66 1011.7
20210803153129 65 16 4.0 7.0 0.00 0.14 0.14 66 1011.8
20210803152626 65 0 5.0 6.0 0.00 0.14 0.14 67 1011.8
20210803152126 64 27 4.0 9.0 0.00 0.14 0.14 68 1011.9
20210803151626 64 0 5.0 9.0 0.00 0.14 0.14 68 1011.9
20210803151125 64 355 6.0 9.0 0.00 0.14 0.14 68 1011.9
20210803150624 64 358 5.0 7.0 0.00 0.14 0.14 68 1012.0
20210803150124 64 344 4.0 7.0 0.00 0.14 0.14 70 1012.0
20210803145622 64 354 4.0 9.0 0.00 0.14 0.14 69 1012.1
20210803145122 64 0 6.0 9.0 0.00 0.14 0.14 69 1012.0
20210803144623 64 353 6.0 9.0 0.00 0.14 0.14 71 1012.0
20210803144121 64 358 5.0 7.0 0.00 0.14 0.14 71 1012.0
20210803143622 64 0 4.0 11.0 0.00 0.14 0.14 71 1012.0
20210803143121 64 343 6.0 11.0 0.00 0.14 0.14 71 1011.9
20210803142620 64 355 4.0 7.0 0.00 0.14 0.14 72 1011.9
20210803142119 64 354 4.0 9.0 0.00 0.14 0.14 73 1012.0
20210803141617 64 14 6.0 9.0 0.00 0.14 0.14 71 1011.9
20210803141116 64 0 4.0 7.0 0.00 0.14 0.14 72 1012.0
20210803140617 63 348 5.0 7.0 0.00 0.14 0.14 72 1012.0
20210803140118 63 0 4.0 7.0 0.00 0.14 0.14 74 1012.0
20210803135614 63 27 3.0 7.0 0.00 0.14 0.14 74 1012.0
20210803135114 63 18 4.0 7.0 0.00 0.14 0.14 73 1011.9
20210803134613 63 0 4.0 7.0 0.00 0.14 0.14 74 1011.9
20210803134112 63 0 3.0 7.0 0.00 0.14 0.14 75 1011.9
20210803133612 62 343 3.0 7.0 0.00 0.14 0.14 75 1012.0
20210803133111 62 344 3.0 5.0 0.00 0.14 0.14 75 1012.0
20210803132610 62 343 2.0 5.0 0.00 0.14 0.14 76 1012.0
20210803132110 62 350 3.0 6.0 0.00 0.14 0.14 75 1012.0
20210803131610 62 320 4.0 6.0 0.00 0.14 0.14 75 1012.0
20210803131111 62 0 3.0 7.0 0.00 0.14 0.14 75 1012.0
20210803130611 62 0 4.0 9.0 0.00 0.14 0.14 76 1011.9
20210803130112 62 0 4.0 9.0 0.01 0.14 0.14 77 1011.9
20210803125610 62 321 4.0 9.0 0.01 0.14 0.14 78 1011.8
20210803125112 61 351 6.0 9.0 0.02 0.14 0.14 77 1011.8
20210803124610 61 310 3.0 7.0 0.02 0.14 0.14 78 1011.9
20210803124109 60 0 4.0 7.0 0.02 0.14 0.14 79 1011.9
20210803123609 61 345 3.0 9.0 0.02 0.14 0.14 80 1012.0
20210803123109 60 321 4.0 9.0 0.02 0.14 0.14 80 1012.0
20210803122609 60 329 6.0 9.0 0.02 0.14 0.14 80 1012.0
20210803122110 60 350 4.0 7.0 0.02 0.14 0.14 80 1012.1
20210803121606 60 350 3.0 6.0 0.02 0.14 0.14 80 1012.1
20210803121106 60 353 4.0 7.0 0.02 0.14 0.14 80 1012.0
20210803120606 60 357 3.0 9.0 0.02 0.14 0.14 80 1012.1
20210803120106 60 350 4.0 9.0 0.01 0.13 0.13 79 1012.1
20210803115603 61 343 3.0 7.0 0.01 0.13 0.13 79 1012.1
20210803115102 61 343 3.0 7.0 0.00 0.13 0.13 79 1012.1
20210803114603 61 0 4.0 7.0 0.00 0.13 0.13 79 1012.1
20210803114102 61 7 4.0 9.0 0.00 0.13 0.13 80 1012.2
20210803113602 61 6 4.0 9.0 0.00 0.13 0.13 80 1012.1
20210803113101 60 357 5.0 9.0 0.00 0.13 0.13 80 1012.2
20210803112602 60 4 5.0 9.0 0.00 0.13 0.13 80 1012.1
20210803112101 60 1 4.0 10.0 0.00 0.13 0.13 80 1012.2
20210803111602 61 345 7.0 10.0 0.00 0.13 0.13 81 1012.2
20210803111102 61 350 5.0 9.0 0.00 0.13 0.13 81 1012.1
20210803110601 61 350 6.0 9.0 0.00 0.13 0.13 81 1012.3
20210803110101 61 347 6.0 9.0 0.00 0.13 0.13 81 1012.2
20210803105603 60 4 6.0 9.0 0.00 0.13 0.13 80 1012.3
20210803105102 61 355 4.0 6.0 0.00 0.13 0.13 81 1012.4
20210803104603 61 345 4.0 7.0 0.00 0.13 0.13 80 1012.4
20210803104101 61 10 4.0 7.0 0.00 0.13 0.13 80 1012.5
20210803103602 61 354 4.0 6.0 0.00 0.13 0.13 79 1012.4
20210803103102 61 21 4.0 6.0 0.00 0.13 0.13 78 1012.4
20210803102602 61 18 4.0 6.0 0.00 0.13 0.13 78 1012.4
20210803102101 61 21 4.0 6.0 0.00 0.13 0.13 78 1012.4
20210803101602 60 13 4.0 6.0 0.01 0.13 0.13 78 1012.4
20210803101102 60 16 4.0 6.0 0.01 0.13 0.13 78 1012.5
20210803100602 60 23 4.0 5.0 0.01 0.13 0.13 78 1012.4
20210803100102 60 17 3.0 5.0 0.01 0.13 0.13 78 1012.4
20210803095601 60 16 4.0 5.0 0.01 0.13 0.13 78 1012.5
20210803095101 60 357 2.0 3.0 0.01 0.13 0.13 78 1012.6
20210803094601 60 10 2.0 4.0 0.01 0.13 0.13 78 1012.5
20210803094102 60 21 3.0 4.0 0.01 0.13 0.13 79 1012.6
20210803093602 60 35 1.0 4.0 0.01 0.13 0.13 79 1012.5
20210803093101 60 42 2.0 4.0 0.01 0.13 0.13 78 1012.4
20210803092602 60 49 3.0 4.0 0.01 0.13 0.13 78 1012.5
20210803092100 60 63 3.0 4.0 0.01 0.13 0.13 78 1012.4
20210803091601 60 45 2.0 5.0 0.00 0.12 0.12 78 1012.5
20210803091100 60 68 4.0 5.0 0.00 0.12 0.12 78 1012.4
20210803090600 60 69 2.0 5.0 0.00 0.12 0.12 78 1012.4
20210803090059 60 104 2.0 5.0 0.00 0.12 0.12 79 1012.4
20210803085557 60 73 1.0 4.0 0.00 0.12 0.12 80 1012.4
20210803085057 60 52 3.0 4.0 0.00 0.13 0.12 81 1012.4
20210803084556 60 65 2.0 4.0 0.00 0.13 0.12 82 1012.5
20210803084057 60 21 1.0 3.0 0.00 0.13 0.12 82 1012.6
20210803083555 59 80 0.0 4.0 0.00 0.13 0.12 82 1012.4
20210803083055 59 44 2.0 4.0 0.00 0.14 0.12 83 1012.4
20210803082555 59 71 2.0 4.0 0.00 0.14 0.12 83 1012.4
20210803082055 59 59 2.0 4.0 0.00 0.14 0.12 83 1012.4
20210803081552 59 54 2.0 4.0 0.00 0.14 0.12 83 1012.4
20210803081051 58 55 2.0 3.0 0.00 0.15 0.12 83 1012.5
20210803080552 58 38 2.0 3.0 0.00 0.15 0.12 83 1012.6
20210803080052 58 52 2.0 3.0 0.00 0.15 0.12 83 1012.6
20210803075552 58 35 1.0 2.0 0.00 0.15 0.12 83 1012.6
20210803075050 58 55 1.0 3.0 0.00 0.15 0.12 83 1012.6
20210803074549 58 23 2.0 3.0 0.00 0.15 0.12 83 1012.6
20210803074047 57 54 1.0 3.0 0.00 0.15 0.12 83 1012.6
20210803073548 57 68 1.0 2.0 0.00 0.15 0.12 83 1012.7
20210803073046 57 68 1.0 2.0 0.00 0.15 0.12 83 1012.7
20210803072547 57 82 1.0 2.0 0.01 0.15 0.12 83 1012.7
20210803072047 57 75 1.0 2.0 0.01 0.15 0.12 83 1012.7
20210803071549 57 97 1.0 2.0 0.01 0.15 0.12 83 1012.6
20210803071048 57 106 1.0 2.0 0.02 0.15 0.12 83 1012.6
20210803070546 57 44 0.0 2.0 0.02 0.15 0.12 83 1012.6
20210803070047 56 44 0.0 3.0 0.02 0.15 0.12 83 1012.7
20210803065546 56 54 1.0 3.0 0.02 0.15 0.12 83 1012.6
20210803065047 56 75 2.0 3.0 0.02 0.15 0.12 83 1012.6
20210803064544 56 72 2.0 3.0 0.02 0.15 0.12 83 1012.5
20210803064044 56 55 1.0 2.0 0.02 0.15 0.12 83 1012.5
20210803063544 56 61 2.0 3.0 0.02 0.15 0.12 83 1012.6
20210803063044 56 39 1.0 3.0 0.02 0.14 0.12 83 1012.7
20210803062545 56 14 2.0 3.0 0.01 0.14 0.11 83 1012.6
20210803062045 56 4 2.0 3.0 0.01 0.14 0.11 83 1012.6
20210803061546 56 11 2.0 3.0 0.02 0.14 0.11 83 1012.7
20210803061045 56 66 1.0 1.0 0.01 0.13 0.10 83 1012.9
20210803060547 56 66 0.0 0.0 0.01 0.13 0.10 83 1013.0
20210803060043 55 66 0.0 1.0 0.01 0.13 0.10 83 1013.1
20210803055544 55 66 1.0 1.0 0.01 0.13 0.10 83 1013.1
20210803055042 55 66 0.0 1.0 0.01 0.13 0.10 83 1012.9
20210803054541 55 66 0.0 2.0 0.01 0.13 0.10 83 1013.0
20210803054041 55 66 0.0 2.0 0.01 0.13 0.10 83 1013.0
20210803053543 55 66 0.0 1.0 0.01 0.13 0.10 83 1012.9
20210803053041 55 66 0.0 1.0 0.01 0.13 0.10 83 1013.0
20210803052540 55 66 0.0 2.0 0.01 0.13 0.10 83 1012.9
20210803052040 55 66 0.0 2.0 0.01 0.13 0.10 83 1012.9
20210803051540 55 66 1.0 3.0 0.00 0.13 0.09 83 1012.9
20210803051040 55 66 2.0 3.0 0.00 0.13 0.09 83 1012.9
20210803050538 55 61 2.0 3.0 0.00 0.13 0.09 83 1012.8
20210803050036 55 58 1.0 3.0 0.00 0.13 0.09 83 1012.8
20210803045535 55 73 2.0 4.0 0.00 0.13 0.09 83 1012.8
20210803045037 55 47 2.0 4.0 0.00 0.13 0.09 83 1012.7
20210803044533 55 58 2.0 3.0 0.00 0.13 0.09 83 1012.7
20210803044034 55 51 1.0 2.0 0.00 0.13 0.09 83 1012.8
20210803043533 55 51 1.0 2.0 0.00 0.13 0.09 83 1012.7
20210803043034 55 51 0.0 2.0 0.00 0.13 0.09 83 1012.9
20210803042532 55 51 1.0 2.0 0.00 0.13 0.09 83 1012.9
20210803042032 55 165 1.0 2.0 0.00 0.13 0.09 83 1012.9
20210803041532 55 165 1.0 3.0 0.00 0.13 0.09 83 1012.9
20210803041032 55 96 2.0 3.0 0.00 0.13 0.09 83 1012.9
20210803040531 54 41 2.0 2.0 0.00 0.13 0.09 83 1012.8
20210803040031 54 14 1.0 2.0 0.00 0.13 0.09 83 1012.9
20210803035529 54 354 0.0 1.0 0.00 0.13 0.09 83 1012.9
20210803035026 54 354 0.0 1.0 0.00 0.13 0.09 83 1013.0
20210803034525 54 354 0.0 1.0 0.00 0.13 0.09 83 1012.9
20210803034027 54 354 0.0 2.0 0.01 0.13 0.09 83 1012.9
20210803033529 54 354 1.0 3.0 0.02 0.13 0.09 83 1012.9
20210803033025 54 336 2.0 5.0 0.03 0.13 0.09 83 1013.0
20210803032524 54 144 1.0 6.0 0.04 0.13 0.09 83 1013.0
20210803032023 54 147 2.0 6.0 0.05 0.13 0.09 83 1013.0
20210803031524 54 144 4.0 6.0 0.06 0.13 0.09 83 1013.0
20210803031025 54 138 2.0 4.0 0.06 0.13 0.09 83 1013.0
20210803030521 54 41 1.0 2.0 0.08 0.13 0.09 83 1013.0
20210803030022 54 0 0.0 1.0 0.09 0.13 0.09 83 1013.0
20210803025522 54 0 0.0 2.0 0.09 0.13 0.09 83 1013.2
20210803025021 54 0 1.0 2.0 0.09 0.13 0.09 83 1013.1
20210803024521 54 32 1.0 2.0 0.09 0.13 0.09 83 1013.1
20210803024022 54 49 1.0 2.0 0.09 0.12 0.09 83 1013.2
20210803023521 54 107 1.0 2.0 0.07 0.10 0.07 83 1013.3
20210803023020 53 133 0.0 2.0 0.06 0.09 0.06 83 1013.4
20210803022520 53 148 1.0 1.0 0.06 0.08 0.06 83 1013.3
20210803022019 53 148 0.0 1.0 0.05 0.08 0.05 83 1013.4
20210803021519 53 148 0.0 1.0 0.04 0.07 0.04 83 1013.4
20210803021019 53 148 0.0 1.0 0.03 0.06 0.03 83 1013.5
20210803020520 53 148 0.0 1.0 0.02 0.05 0.02 83 1013.5
20210803020019 53 148 0.0 2.0 0.01 0.04 0.01 83 1013.6
20210803015519 53 148 1.0 2.0 0.00 0.03 0.00 83 1013.6
20210803015019 53 142 0.0 2.0 0.00 0.03 0.00 83 1013.5
20210803014519 53 154 0.0 2.0 0.00 0.03 0.00 83 1013.5
20210803014019 53 154 1.0 2.0 0.00 0.03 0.00 83 1013.5
20210803013518 52 154 1.0 2.0 0.00 0.03 0.00 83 1013.6
20210803013019 52 96 0.0 0.0 0.00 0.03 0.00 83 1013.5
20210803012518 52 96 0.0 1.0 0.00 0.03 0.00 83 1013.5
20210803012018 52 96 0.0 1.0 0.00 0.03 0.00 83 1013.4
20210803011518 52 96 0.0 2.0 0.00 0.03 0.00 83 1013.4
20210803011018 52 96 1.0 2.0 0.00 0.03 0.00 83 1013.4
20210803010519 52 96 0.0 2.0 0.00 0.03 0.00 83 1013.5
20210803010019 52 106 1.0 2.0 0.00 0.03 0.00 83 1013.6
20210803005519 51 148 0.0 1.0 0.00 0.03 0.00 83 1013.7
20210803005017 51 148 0.0 2.0 0.00 0.03 0.00 83 1013.6
20210803004518 51 148 0.0 2.0 0.00 0.03 0.00 83 1013.7
20210803004018 51 148 0.0 1.0 0.00 0.03 0.00 83 1013.7
20210803003517 51 148 0.0 1.0 0.00 0.03 0.00 83 1013.6
20210803003017 51 148 1.0 1.0 0.00 0.03 0.00 83 1013.6
20210803002517 51 148 0.0 1.0 0.00 0.03 0.00 83 1013.7
20210803002018 51 148 0.0 1.0 0.00 0.03 0.00 83 1013.8
20210803001517 51 148 0.0 1.0 0.00 0.03 0.00 83 1013.9
20210803001017 51 148 0.0 1.0 0.00 0.03 0.00 83 1013.9
20210803000518 50 148 0.0 1.0 0.00 0.03 0.00 83 1013.9
20210803000018 50 148 0.0 1.0 0.00 0.03 0.00 83 1013.8
20210802235517 50 148 0.0 1.0 0.00 0.03 0.00 83 1013.9
20210802235017 50 148 0.0 1.0 0.00 0.03 0.00 83 1014.0
20210802234516 51 148 0.0 1.0 0.00 0.03 0.00 83 1014.0
20210802234017 51 148 0.0 1.0 0.00 0.03 0.00 83 1014.1
20210802233516 51 148 0.0 2.0 0.00 0.03 0.00 82 1014.1
20210802233016 51 148 1.0 2.0 0.00 0.03 0.00 83 1014.2
20210802232518 51 148 0.0 2.0 0.00 0.03 0.00 83 1014.1
20210802232016 51 148 1.0 2.0 0.00 0.03 0.00 83 1014.2
20210802231516 50 148 0.0 1.0 0.00 0.03 0.00 83 1014.1
20210802231015 50 148 0.0 0.0 0.00 0.03 0.00 82 1014.2
20210802230515 50 148 0.0 0.0 0.00 0.03 0.00 83 1014.3
20210802230016 50 148 0.0 0.0 0.00 0.03 0.00 82 1014.3
20210802225515 50 148 0.0 0.0 0.00 0.03 0.00 82 1014.2
20210802225015 50 148 0.0 0.0 0.00 0.03 0.00 82 1014.2
20210802224515 51 148 0.0 0.0 0.00 0.03 0.00 82 1014.2
20210802224015 51 148 0.0 0.0 0.00 0.03 0.00 82 1014.1
20210802223515 51 148 0.0 1.0 0.00 0.03 0.00 82 1014.2
20210802223014 52 148 0.0 1.0 0.00 0.03 0.00 83 1014.3
20210802222515 51 148 1.0 1.0 0.00 0.03 0.00 82 1014.3
20210802222014 51 148 0.0 2.0 0.00 0.03 0.00 81 1014.3
20210802221515 51 148 0.0 2.0 0.00 0.03 0.00 81 1014.4
20210802221014 51 148 1.0 1.0 0.00 0.03 0.00 81 1014.3
20210802220515 52 148 0.0 1.0 0.00 0.03 0.00 81 1014.4
20210802220014 52 148 0.0 1.0 0.00 0.03 0.00 81 1014.4
20210802215513 53 148 0.0 2.0 0.00 0.03 0.03 82 1014.4